Starlink 31255

operational
NORAD ID: 58893 Int'l Des: 2024-020 Owner: SPXS Country: US Constellation: starlink
LEOCIRCULAR

关于 Starlink 31255

正在加载描述...

实时位置

正在加载3D地球...

即将过境

高度历史

Altitude vs Time

uPlot chart will show altitude changes over time

两行轨道根数

1 58893U 24020T 26036.57874835 .00001546 00000-0 64317-4 0 9996
2 58893 53.1601 111.6494 0001261 133.0442 227.0664 15.30199203113155
Epoch: Feb 5, 2026 • Age: 30 hours

当前状态

高度 478.8 km
速度 7.63 km/s
星下点 43.92°N, 160.02°E
发射日期 Jan 29, 2024
运行时间 2 years
类型 internet

技术详情

分类 Payload
质量 730.00 kg
干质量 700.00 kg
总质量 730.00 kg
长度 0.30 m
直径 4.10 m
跨度 29.00 m
形状 Box + pan
制造商 SPXS
平台类型 Starlink V2M
阶段状态 In Orbit
所有者/国家 SPXS/US

大型星座

Loading constellations...